Home > Weather > Himeji > Past weeks

Flag for Japan Past Weather in Himeji, Japan — Yesterday and Last 2 Weeks

Now
77 °F

Passing clouds.


Feels Like: 78 °F
Forecast: 74 / 85 °F
Wind: 5 mph from Southwest

Location: Kansai International Airport

Current Time: Jul 24, 2016 at 12:07:49 AM

Latest Report: Jul 23, 2016 at 11:30 PM


Visibility: N/A

Pressure: 29.89 "Hg

Humidity: 89%

Dew Point: 73 °F

Location of HimejiLocation

Past Weather in Himeji — Graph

°F

Himeji Temperature Yesterday

Maximum temperature yesterday: 86 °F (at 11:00 AM)
Minimum temperature yesterday: 77 °F (at 12:00 AM)
Average temperature yesterday: 80 °F

High & Low Weather Summary for the Past Weeks

 TemperatureHumidityPressure
High90 °F (Jul 20, 2:30 PM)100% (Jul 9, 4:30 AM)29.89 "Hg (Jul 9, 4:30 AM)
Low73 °F (Jul 9, 2:00 AM)43% (Jul 20, 1:30 PM)29.42 "Hg (Jul 14, 2:30 PM)
Average81 °F77%29.72 "Hg
* Reported Jul 8 11:00 PM — Jul 23 11:00 PM, Himeji, Weather by CustomWeather, © 2016

Note: Actual official high and low records may vary slightly from our data, if they occured in-between our weather recording intervals... More about our weather records

Advertising

Himeji Weather History for the Previous 24 Hours

Scroll right to see more
 ConditionsComfort  
Time TempWeatherWind HumidityBarometerVisibility
11:00 PM
Sat, Jul 23
77 °FPassing clouds.3 mph89%29.89 "HgN/A
10:30 PM77 °FPartly cloudy.5 mph89%29.89 "HgN/A
10:00 PM77 °FPassing clouds.10 mph89%29.89 "HgN/A
9:30 PM77 °FPassing clouds.12 mph89%29.89 "HgN/A
9:00 PM77 °FPassing clouds.13 mph89%29.89 "HgN/A
8:30 PM77 °FPassing clouds.13 mph89%29.86 "HgN/A
8:00 PM79 °FPassing clouds.14 mph84%29.86 "HgN/A
7:30 PM79 °FPassing clouds.10 mph84%29.86 "HgN/A
7:00 PM79 °FScattered clouds.13 mph84%29.86 "HgN/A
6:30 PM79 °FPassing clouds.14 mph84%29.86 "HgN/A
6:00 PM81 °FPassing clouds.15 mph79%29.86 "HgN/A
5:30 PM82 °FScattered clouds.14 mph70%29.83 "HgN/A
5:00 PM84 °FPartly sunny.14 mph70%29.83 "HgN/A
4:30 PM84 °FPartly sunny.13 mph66%29.83 "HgN/A
4:00 PM86 °FPartly sunny.13 mph66%29.86 "HgN/A
3:30 PM86 °FPartly sunny.14 mph59%29.86 "HgN/A
3:00 PM86 °FPartly sunny.9 mph59%29.86 "HgN/A
2:30 PM86 °FPartly sunny.7 mph55%29.83 "HgN/A
2:00 PM84 °FPartly sunny.7 mph58%29.86 "HgN/A
1:30 PM84 °FPartly sunny.7 mph58%29.86 "HgN/A
1:00 PM86 °FPartly sunny.7 mph55%29.86 "HgN/A
12:30 PM86 °FPartly sunny.8 mph55%29.86 "HgN/A
12:00 PM86 °FPartly sunny.8 mph55%29.86 "HgN/A
11:30 AM86 °FPartly sunny.8 mph55%29.86 "HgN/A
11:00 AM86 °FPartly sunny.5 mph59%29.89 "HgN/A
10:30 AM84 °FScattered clouds.7 mph62%29.89 "HgN/A
10:00 AM82 °FScattered clouds.6 mph70%29.89 "HgN/A
9:30 AM82 °FScattered clouds.2 mph66%29.89 "HgN/A
9:00 AM81 °FScattered clouds.6 mph66%29.89 "HgN/A
8:30 AM81 °FPartly sunny.5 mph66%29.89 "HgN/A
8:00 AM79 °FPartly sunny.2 mph74%29.89 "HgN/A
7:30 AM79 °FPartly sunny.3 mph74%29.89 "HgN/A
7:00 AM77 °FPartly sunny.3 mph79%29.86 "HgN/A
6:30 AM77 °FPartly sunny.5 mph79%29.86 "HgN/A
6:00 AM77 °FPartly sunny.6 mph79%29.86 "HgN/A
5:30 AM77 °FPartly sunny.7 mph79%29.86 "HgN/A
5:00 AM77 °FPassing clouds.6 mph79%29.86 "HgN/A
4:30 AM77 °FPassing clouds.8 mph79%29.86 "HgN/A
4:00 AM77 °FPassing clouds.8 mph79%29.83 "HgN/A
3:30 AM77 °FPassing clouds.7 mph79%29.83 "HgN/A
3:00 AM77 °FPassing clouds.5 mph74%29.83 "HgN/A
2:30 AM77 °FPassing clouds.5 mph79%29.83 "HgN/A
2:00 AM77 °FPartly cloudy.5 mph79%29.83 "HgN/A
1:00 AM77 °FPartly cloudy.7 mph89%29.86 "HgN/A
12:30 AM79 °FPassing clouds.8 mph84%29.83 "HgN/A
12:00 AM77 °FPartly cloudy.7 mph89%29.86 "HgN/A
Weather by CustomWeather, © 2016

See weather overviewHow to use our weather pages